Time,TemperatureF,DewpointF,PressureIn,WindDirection,WindDirectionDegrees,WindSpeedMPH,WindSpeedGustMPH,Humidity,HourlyPrecipIn,Conditions,Clouds,dailyrainin,SoftwareType,DateUTC
2013-06-26 00:03:00,83.9,70.9,29.73,SW,233,0.0,1.0,65,0.00,,---,0.00,VWS V14.01,2013-06-26 05:03:00,
2013-06-26 00:08:00,83.7,71.1,29.73,South,191,2.0,3.0,66,0.00,,---,0.00,VWS V14.01,2013-06-26 05:08:00,
2013-06-26 00:13:00,83.5,71.4,29.73,SW,219,0.0,3.0,67,0.00,,---,0.00,VWS V14.01,2013-06-26 05:13:00,
2013-06-26 00:18:00,83.2,71.6,29.73,SW,229,0.0,4.0,68,0.00,,---,0.00,VWS V14.01,2013-06-26 05:18:00,
2013-06-26 00:23:00,83.0,71.4,29.73,SW,233,0.0,4.0,68,0.00,,---,0.00,VWS V14.01,2013-06-26 05:23:00,
2013-06-26 00:28:00,82.8,71.6,29.73,WSW,245,0.0,4.0,69,0.00,,---,0.00,VWS V14.01,2013-06-26 05:28:00,
2013-06-26 00:33:00,82.5,71.3,29.73,SW,225,0.0,1.0,69,0.00,,---,0.00,VWS V14.01,2013-06-26 05:33:00,
2013-06-26 00:38:00,82.1,71.3,29.73,SW,224,0.0,1.0,70,0.00,,---,0.00,VWS V14.01,2013-06-26 05:38:00,
2013-06-26 00:43:00,81.6,71.3,29.73,SW,229,0.0,1.0,71,0.00,,---,0.00,VWS V14.01,2013-06-26 05:43:00,
2013-06-26 00:48:00,81.4,71.5,29.73,SW,232,0.0,1.0,72,0.00,,---,0.00,VWS V14.01,2013-06-26 05:48:00,
2013-06-26 00:53:00,81.2,71.7,29.73,SW,226,0.0,1.0,73,0.00,,---,0.00,VWS V14.01,2013-06-26 05:53:00,
2013-06-26 00:58:00,80.9,71.8,29.73,SW,232,0.0,1.0,74,0.00,,---,0.00,VWS V14.01,2013-06-26 05:58:00,
2013-06-26 01:03:00,80.7,71.7,29.73,WSW,239,0.0,1.0,74,0.00,,---,0.00,VWS V14.01,2013-06-26 06:03:00,
2013-06-26 01:07:00,80.5,71.8,29.73,SW,232,0.0,1.0,75,0.00,,---,0.00,VWS V14.01,2013-06-26 06:07:00,
2013-06-26 01:12:00,80.4,72.2,29.73,SW,229,0.0,1.0,76,0.00,,---,0.00,VWS V14.01,2013-06-26 06:12:00,
2013-06-26 01:17:00,80.2,71.9,29.73,SW,218,2.0,4.0,76,0.00,,---,0.00,VWS V14.01,2013-06-26 06:17:00,
2013-06-26 01:22:00,80.0,72.2,29.73,SSW,213,0.0,4.0,77,0.00,,---,0.00,VWS V14.01,2013-06-26 06:22:00,
2013-06-26 01:27:00,79.7,71.9,29.72,SSW,200,0.0,4.0,77,0.00,,---,0.00,VWS V14.01,2013-06-26 06:27:00,
2013-06-26 01:32:00,79.6,72.1,29.72,WSW,246,0.0,0.0,78,0.00,,---,0.00,VWS V14.01,2013-06-26 06:32:00,
2013-06-26 01:37:00,79.4,72.3,29.72,WSW,248,0.0,3.0,79,0.00,,---,0.00,VWS V14.01,2013-06-26 06:37:00,
2013-06-26 01:42:00,79.3,72.2,29.72,WSW,242,0.0,3.0,79,0.00,,---,0.00,VWS V14.01,2013-06-26 06:42:00,
2013-06-26 01:47:00,79.2,72.1,29.73,SSW,212,0.0,1.0,79,0.00,,---,0.00,VWS V14.01,2013-06-26 06:47:00,
2013-06-26 01:52:00,79.1,72.4,29.73,SW,232,0.0,3.0,80,0.00,,---,0.00,VWS V14.01,2013-06-26 06:52:00,
2013-06-26 01:57:00,79.0,72.3,29.73,SSW,203,0.0,3.0,80,0.00,,---,0.00,VWS V14.01,2013-06-26 06:57:00,
2013-06-26 02:02:00,78.9,72.2,29.73,SSW,193,0.0,1.0,80,0.00,,---,0.00,VWS V14.01,2013-06-26 07:02:00,
2013-06-26 02:07:00,78.8,72.5,29.73,SW,232,0.0,4.0,81,0.00,,---,0.00,VWS V14.01,2013-06-26 07:07:00,
2013-06-26 02:12:00,78.7,72.4,29.73,SW,219,0.0,4.0,81,0.00,,---,0.00,VWS V14.01,2013-06-26 07:12:00,
2013-06-26 02:17:00,78.7,72.4,29.73,SW,229,0.0,1.0,81,0.00,,---,0.00,VWS V14.01,2013-06-26 07:17:00,
2013-06-26 02:22:00,78.5,72.6,29.73,SW,226,0.0,1.0,82,0.00,,---,0.00,VWS V14.01,2013-06-26 07:22:00,
2013-06-26 02:27:00,78.4,72.4,29.73,WSW,248,0.0,1.0,82,0.00,,---,0.00,VWS V14.01,2013-06-26 07:27:00,
2013-06-26 02:32:00,78.4,72.4,29.73,SW,229,0.0,1.0,82,0.00,,---,0.00,VWS V14.01,2013-06-26 07:32:00,
2013-06-26 02:37:00,78.3,72.4,29.73,SSW,210,0.0,1.0,82,0.00,,---,0.00,VWS V14.01,2013-06-26 07:37:00,
2013-06-26 02:42:00,78.3,72.4,29.73,SW,232,0.0,3.0,82,0.00,,---,0.00,VWS V14.01,2013-06-26 07:42:00,
2013-06-26 02:47:00,78.1,72.5,29.73,SW,214,0.0,1.0,83,0.00,,---,0.00,VWS V14.01,2013-06-26 07:47:00,
2013-06-26 02:52:00,78.0,72.4,29.73,West,260,0.0,1.0,83,0.00,,---,0.00,VWS V14.01,2013-06-26 07:52:00,
2013-06-26 02:57:00,77.8,72.2,29.73,SSW,200,0.0,1.0,83,0.00,,---,0.00,VWS V14.01,2013-06-26 07:57:00,
2013-06-26 03:02:00,77.5,72.3,29.73,WSW,241,1.0,1.0,84,0.00,,---,0.00,VWS V14.01,2013-06-26 08:02:00,
2013-06-26 03:07:00,77.2,72.0,29.73,SW,229,0.0,1.0,84,0.00,,---,0.00,VWS V14.01,2013-06-26 08:07:00,
2013-06-26 03:12:00,77.0,72.2,29.73,WSW,256,0.0,1.0,85,0.00,,---,0.00,VWS V14.01,2013-06-26 08:12:00,
2013-06-26 03:17:00,76.7,71.9,29.73,SW,230,0.0,1.0,85,0.00,,---,0.00,VWS V14.01,2013-06-26 08:17:00,
2013-06-26 03:22:00,76.5,72.0,29.73,SW,236,0.0,1.0,86,0.00,,---,0.00,VWS V14.01,2013-06-26 08:22:00,
2013-06-26 03:27:00,76.3,71.8,29.73,WSW,239,0.0,1.0,86,0.00,,---,0.00,VWS V14.01,2013-06-26 08:27:00,
2013-06-26 03:32:00,76.1,71.6,29.73,SW,226,0.0,0.0,86,0.00,,---,0.00,VWS V14.01,2013-06-26 08:32:00,
2013-06-26 03:37:00,76.0,71.9,29.73,SW,229,1.0,1.0,87,0.00,,---,0.00,VWS V14.01,2013-06-26 08:37:00,
2013-06-26 03:42:00,75.9,71.8,29.73,WSW,238,0.0,4.0,87,0.00,,---,0.00,VWS V14.01,2013-06-26 08:42:00,
2013-06-26 03:47:00,75.7,71.6,29.73,SW,231,0.0,1.0,87,0.00,,---,0.00,VWS V14.01,2013-06-26 08:47:00,
2013-06-26 03:52:00,75.6,71.8,29.72,WSW,239,0.0,1.0,88,0.00,,---,0.00,VWS V14.01,2013-06-26 08:52:00,
2013-06-26 03:57:00,75.4,71.6,29.73,WSW,255,0.0,1.0,88,0.00,,---,0.00,VWS V14.01,2013-06-26 08:57:00,
2013-06-26 04:02:00,75.2,71.4,29.73,WSW,242,0.0,0.0,88,0.00,,---,0.00,VWS V14.01,2013-06-26 09:02:00,
2013-06-26 04:07:00,75.0,71.2,29.73,SW,215,0.0,1.0,88,0.00,,---,0.00,VWS V14.01,2013-06-26 09:07:00,
2013-06-26 04:12:00,74.8,71.3,29.73,West,260,0.0,1.0,89,0.00,,---,0.00,VWS V14.01,2013-06-26 09:12:00,
2013-06-26 04:17:00,74.7,71.2,29.73,SW,233,0.0,1.0,89,0.00,,---,0.00,VWS V14.01,2013-06-26 09:17:00,
2013-06-26 04:22:00,74.6,71.2,29.73,WNW,300,0.0,1.0,89,0.00,,---,0.00,VWS V14.01,2013-06-26 09:22:00,
2013-06-26 04:27:00,74.4,70.9,29.73,SW,229,0.0,1.0,89,0.00,,---,0.00,VWS V14.01,2013-06-26 09:27:00,
2013-06-26 04:32:00,74.2,70.8,29.73,SW,226,0.0,1.0,89,0.00,,---,0.00,VWS V14.01,2013-06-26 09:32:00,
2013-06-26 04:37:00,74.0,70.9,29.73,SW,226,0.0,1.0,90,0.00,,---,0.00,VWS V14.01,2013-06-26 09:37:00,
2013-06-26 04:42:00,73.9,70.8,29.73,WSW,250,0.0,1.0,90,0.00,,---,0.00,VWS V14.01,2013-06-26 09:42:00,
2013-06-26 04:47:00,73.7,70.6,29.73,WSW,250,0.0,0.0,90,0.00,,---,0.00,VWS V14.01,2013-06-26 09:47:00,
2013-06-26 04:52:00,73.5,70.4,29.73,WSW,250,0.0,0.0,90,0.00,,---,0.00,VWS V14.01,2013-06-26 09:52:00,
2013-06-26 04:57:00,73.3,70.5,29.74,WSW,250,0.0,0.0,91,0.00,,---,0.00,VWS V14.01,2013-06-26 09:57:00,
2013-06-26 05:02:00,73.3,70.5,29.73,WSW,248,0.0,1.0,91,0.00,,---,0.00,VWS V14.01,2013-06-26 10:02:00,
2013-06-26 05:07:00,73.2,70.4,29.74,WSW,243,0.0,1.0,91,0.00,,---,0.00,VWS V14.01,2013-06-26 10:07:00,
2013-06-26 05:12:00,73.2,70.7,29.74,WSW,243,0.0,1.0,92,0.00,,---,0.00,VWS V14.01,2013-06-26 10:12:00,
2013-06-26 05:17:00,73.1,70.3,29.74,WSW,243,0.0,0.0,91,0.00,,---,0.00,VWS V14.01,2013-06-26 10:17:00,
2013-06-26 05:22:00,73.1,70.6,29.74,WSW,243,0.0,0.0,92,0.00,,---,0.00,VWS V14.01,2013-06-26 10:22:00,
2013-06-26 05:27:00,73.1,70.6,29.74,WSW,243,0.0,0.0,92,0.00,,---,0.00,VWS V14.01,2013-06-26 10:27:00,
2013-06-26 05:32:00,73.0,70.5,29.75,WSW,243,0.0,0.0,92,0.00,,---,0.00,VWS V14.01,2013-06-26 10:32:00,
2013-06-26 05:37:00,72.9,70.4,29.75,WSW,243,0.0,0.0,92,0.00,,---,0.00,VWS V14.01,2013-06-26 10:37:00,
2013-06-26 05:42:00,72.7,70.2,29.75,WSW,243,0.0,0.0,92,0.00,,---,0.00,VWS V14.01,2013-06-26 10:42:00,
2013-06-26 05:47:00,72.7,70.2,29.75,WSW,243,0.0,0.0,92,0.00,,---,0.00,VWS V14.01,2013-06-26 10:47:00,
2013-06-26 05:52:00,72.8,70.3,29.75,WSW,243,0.0,0.0,92,0.00,,---,0.00,VWS V14.01,2013-06-26 10:52:00,
2013-06-26 05:57:00,72.7,70.2,29.75,WSW,243,0.0,0.0,92,0.00,,---,0.00,VWS V14.01,2013-06-26 10:57:00,
2013-06-26 06:02:00,72.7,70.2,29.75,WSW,245,0.0,0.0,92,0.00,,---,0.00,VWS V14.01,2013-06-26 11:02:00,
2013-06-26 06:07:00,72.7,70.2,29.76,SW,235,0.0,0.0,92,0.00,,---,0.00,VWS V14.01,2013-06-26 11:07:00,
2013-06-26 06:12:00,72.7,70.2,29.76,SW,233,0.0,0.0,92,0.00,,---,0.00,VWS V14.01,2013-06-26 11:12:00,
2013-06-26 06:17:00,72.7,70.2,29.76,SW,233,0.0,0.0,92,0.00,,---,0.00,VWS V14.01,2013-06-26 11:17:00,
2013-06-26 06:22:00,72.7,70.2,29.77,SW,236,0.0,0.0,92,0.00,,---,0.00,VWS V14.01,2013-06-26 11:22:00,
2013-06-26 06:27:00,71.9,69.1,29.77,SW,236,0.0,0.0,91,0.00,,---,0.00,VWS V14.01,2013-06-26 11:27:00,
2013-06-26 06:32:00,74.4,71.6,29.77,SW,236,0.0,0.0,91,0.00,,---,0.00,VWS V14.01,2013-06-26 11:32:00,
2013-06-26 06:37:00,74.4,71.6,29.78,SW,236,0.0,0.0,91,0.00,,---,0.00,VWS V14.01,2013-06-26 11:37:00,
2013-06-26 06:42:00,74.4,71.6,29.78,SW,236,0.0,0.0,91,0.00,,---,0.00,VWS V14.01,2013-06-26 11:42:00,
2013-06-26 06:47:00,74.4,71.6,29.78,SW,236,0.0,0.0,91,0.00,,---,0.00,VWS V14.01,2013-06-26 11:47:00,
2013-06-26 06:52:00,74.4,71.6,29.79,SW,236,0.0,0.0,91,0.00,,---,0.00,VWS V14.01,2013-06-26 11:52:00,
2013-06-26 06:57:00,74.4,71.6,29.79,SW,236,0.0,0.0,91,0.00,,---,0.00,VWS V14.01,2013-06-26 11:57:00,
2013-06-26 07:01:00,74.4,71.6,29.79,SW,236,0.0,0.0,91,0.00,,---,0.00,VWS V14.01,2013-06-26 12:01:00,
2013-06-26 07:06:00,74.4,71.6,29.79,SW,236,0.0,0.0,91,0.00,,---,0.00,VWS V14.01,2013-06-26 12:06:00,
2013-06-26 07:11:00,74.4,71.6,29.79,SW,236,0.0,0.0,91,0.00,,---,0.00,VWS V14.01,2013-06-26 12:11:00,
2013-06-26 07:16:00,74.4,71.6,29.79,SW,236,0.0,0.0,91,0.00,,---,0.00,VWS V14.01,2013-06-26 12:16:00,
2013-06-26 07:21:00,76.1,71.6,29.80,SW,236,0.0,0.0,86,0.00,,---,0.00,VWS V14.01,2013-06-26 12:21:00,
2013-06-26 07:26:00,76.2,71.4,29.80,West,276,0.0,0.0,85,0.00,,---,0.00,VWS V14.01,2013-06-26 12:26:00,
2013-06-26 07:31:00,76.2,71.4,29.80,West,281,0.0,0.0,85,0.00,,---,0.00,VWS V14.01,2013-06-26 12:31:00,
2013-06-26 07:36:00,76.2,71.0,29.81,WNW,302,0.0,1.0,84,0.00,,---,0.00,VWS V14.01,2013-06-26 12:36:00,
2013-06-26 07:41:00,76.3,71.5,29.81,NW,315,0.0,1.0,85,0.00,,---,0.00,VWS V14.01,2013-06-26 12:41:00,
2013-06-26 07:46:00,76.4,71.2,29.82,WNW,301,0.0,0.0,84,0.00,,---,0.00,VWS V14.01,2013-06-26 12:46:00,
2013-06-26 07:51:00,76.7,71.2,29.82,WNW,303,0.0,0.0,83,0.00,,---,0.00,VWS V14.01,2013-06-26 12:51:00,
2013-06-26 07:56:00,76.9,71.0,29.82,NW,310,0.0,0.0,82,0.00,,---,0.00,VWS V14.01,2013-06-26 12:56:00,
2013-06-26 08:01:00,77.2,71.3,29.83,NNW,346,0.0,0.0,82,0.00,,---,0.00,VWS V14.01,2013-06-26 13:01:00,
2013-06-26 08:06:00,77.7,71.0,29.83,NW,321,1.0,1.0,80,0.00,,---,0.00,VWS V14.01,2013-06-26 13:06:00,
2013-06-26 08:11:00,78.0,71.0,29.83,WNW,293,0.0,3.0,79,0.00,,---,0.00,VWS V14.01,2013-06-26 13:11:00,
2013-06-26 08:16:00,78.2,71.2,29.83,ENE,68,2.0,4.0,79,0.00,,---,0.00,VWS V14.01,2013-06-26 13:16:00,
2013-06-26 08:21:00,78.7,71.3,29.83,NW,315,1.0,4.0,78,0.00,,---,0.00,VWS V14.01,2013-06-26 13:21:00,
2013-06-26 08:26:00,79.1,71.3,29.83,NNW,329,0.0,4.0,77,0.00,,---,0.00,VWS V14.01,2013-06-26 13:26:00,
2013-06-26 08:31:00,79.4,71.6,29.83,NW,322,0.0,0.0,77,0.00,,---,0.00,VWS V14.01,2013-06-26 13:31:00,
2013-06-26 08:36:00,79.9,71.3,29.83,WNW,300,0.0,1.0,75,0.00,,---,0.00,VWS V14.01,2013-06-26 13:36:00,
2013-06-26 08:41:00,80.7,71.2,29.83,North,8,1.0,3.0,73,0.00,,---,0.00,VWS V14.01,2013-06-26 13:41:00,
2013-06-26 08:46:00,81.4,71.1,29.83,NW,306,0.0,3.0,71,0.00,,---,0.00,VWS V14.01,2013-06-26 13:46:00,
2013-06-26 08:51:00,81.9,71.2,29.83,NE,40,0.0,3.0,70,0.00,,---,0.00,VWS V14.01,2013-06-26 13:51:00,
2013-06-26 08:56:00,82.7,71.1,29.83,NNE,14,0.0,3.0,68,0.00,,---,0.00,VWS V14.01,2013-06-26 13:56:00,
2013-06-26 09:01:00,83.7,71.1,29.83,SSE,148,0.0,1.0,66,0.00,,---,0.00,VWS V14.01,2013-06-26 14:01:00,
2013-06-26 09:06:00,84.6,71.6,29.83,SW,226,0.0,1.0,65,0.00,,---,0.00,VWS V14.01,2013-06-26 14:06:00,
2013-06-26 09:11:00,85.8,71.3,29.83,SW,229,0.0,1.0,62,0.00,,---,0.00,VWS V14.01,2013-06-26 14:11:00,
2013-06-26 09:16:00,86.0,71.5,29.83,WSW,238,0.0,0.0,62,0.00,,---,0.00,VWS V14.01,2013-06-26 14:16:00,
2013-06-26 09:21:00,86.6,71.6,29.83,SW,236,0.0,1.0,61,0.00,,---,0.00,VWS V14.01,2013-06-26 14:21:00,
2013-06-26 09:26:00,87.3,72.2,29.83,SW,232,0.0,1.0,61,0.00,,---,0.00,VWS V14.01,2013-06-26 14:26:00,
2013-06-26 09:31:00,87.6,71.0,29.83,SW,229,0.0,0.0,58,0.00,,---,0.00,VWS V14.01,2013-06-26 14:31:00,
2013-06-26 09:36:00,88.3,71.7,29.83,SW,218,0.0,1.0,58,0.00,,---,0.00,VWS V14.01,2013-06-26 14:36:00,
2013-06-26 09:41:00,88.7,70.5,29.83,West,273,0.0,1.0,55,0.00,,---,0.00,VWS V14.01,2013-06-26 14:41:00,
2013-06-26 09:46:00,88.5,70.3,29.83,NW,308,0.0,0.0,55,0.00,,---,0.00,VWS V14.01,2013-06-26 14:46:00,
2013-06-26 09:51:00,88.4,69.7,29.83,NNW,335,0.0,1.0,54,0.00,,---,0.00,VWS V14.01,2013-06-26 14:51:00,
2013-06-26 09:56:00,88.9,69.6,29.83,NE,49,2.0,3.0,53,0.00,,---,0.00,VWS V14.01,2013-06-26 14:56:00,
2013-06-26 10:01:00,89.5,69.0,29.83,ENE,66,1.0,2.0,51,0.00,,---,0.00,VWS V14.01,2013-06-26 15:01:00,
2013-06-26 10:06:00,90.0,68.9,29.83,ENE,62,0.0,3.0,50,0.00,,---,0.00,VWS V14.01,2013-06-26 15:06:00,
2013-06-26 10:11:00,89.9,69.4,29.83,NNE,12,3.0,5.0,51,0.00,,---,0.00,VWS V14.01,2013-06-26 15:11:00,
2013-06-26 10:16:00,90.2,67.9,29.83,NNE,30,2.0,4.0,48,0.00,,---,0.00,VWS V14.01,2013-06-26 15:16:00,
2013-06-26 10:21:00,90.1,68.4,29.83,North,10,0.0,7.0,49,0.00,,---,0.00,VWS V14.01,2013-06-26 15:21:00,
2013-06-26 10:26:00,90.2,68.5,29.83,NW,321,3.0,7.0,49,0.00,,---,0.00,VWS V14.01,2013-06-26 15:26:00,
2013-06-26 10:31:00,89.7,69.2,29.83,NW,318,1.0,3.0,51,0.00,,---,0.00,VWS V14.01,2013-06-26 15:31:00,
2013-06-26 10:36:00,89.6,69.1,29.83,NE,51,3.0,6.0,51,0.00,,---,0.00,VWS V14.01,2013-06-26 15:36:00,
2013-06-26 10:41:00,90.1,69.0,29.83,ESE,110,4.0,6.0,50,0.00,,---,0.00,VWS V14.01,2013-06-26 15:41:00,
2013-06-26 10:46:00,90.4,69.2,29.83,NNE,18,0.0,4.0,50,0.00,,---,0.00,VWS V14.01,2013-06-26 15:46:00,
2013-06-26 10:51:00,91.3,69.5,29.83,ENE,63,1.0,4.0,49,0.00,,---,0.00,VWS V14.01,2013-06-26 15:51:00,
2013-06-26 10:56:00,92.0,70.1,29.82,ENE,60,5.0,5.0,49,0.00,,---,0.00,VWS V14.01,2013-06-26 15:56:00,
2013-06-26 11:01:00,91.8,69.9,29.82,NE,40,5.0,6.0,49,0.00,,---,0.00,VWS V14.01,2013-06-26 16:01:00,
2013-06-26 11:06:00,92.2,69.1,29.83,NE,51,3.0,6.0,47,0.00,,---,0.00,VWS V14.01,2013-06-26 16:06:00,
2013-06-26 11:11:00,92.9,70.3,29.82,North,351,2.0,7.0,48,0.00,,---,0.00,VWS V14.01,2013-06-26 16:11:00,
2013-06-26 11:16:00,93.2,69.4,29.83,NNE,25,2.0,4.0,46,0.00,,---,0.00,VWS V14.01,2013-06-26 16:16:00,
2013-06-26 11:21:00,93.2,69.4,29.83,WNW,291,1.0,6.0,46,0.00,,---,0.00,VWS V14.01,2013-06-26 16:21:00,
2013-06-26 11:26:00,93.7,69.2,29.83,NNW,336,3.0,6.0,45,0.00,,---,0.00,VWS V14.01,2013-06-26 16:26:00,
2013-06-26 11:31:00,94.0,68.1,29.83,ENE,60,2.0,2.0,43,0.00,,---,0.00,VWS V14.01,2013-06-26 16:31:00,
2013-06-26 11:36:00,94.4,69.1,29.83,NE,45,5.0,7.0,44,0.00,,---,0.00,VWS V14.01,2013-06-26 16:36:00,
2013-06-26 11:41:00,93.8,69.3,29.83,NE,51,5.0,7.0,45,0.00,,---,0.00,VWS V14.01,2013-06-26 16:41:00,
2013-06-26 11:46:00,93.4,68.2,29.83,NE,42,0.0,2.0,44,0.00,,---,0.00,VWS V14.01,2013-06-26 16:46:00,
2013-06-26 11:51:00,94.3,69.1,29.83,NNW,342,1.0,8.0,44,0.00,,---,0.00,VWS V14.01,2013-06-26 16:51:00,
2013-06-26 11:56:00,94.5,69.2,29.83,East,88,2.0,8.0,44,0.00,,---,0.00,VWS V14.01,2013-06-26 16:56:00,
2013-06-26 12:01:00,94.9,68.9,29.83,East,79,4.0,5.0,43,0.00,,---,0.00,VWS V14.01,2013-06-26 17:01:00,
2013-06-26 12:06:00,94.6,68.7,29.83,ENE,77,4.0,10.0,43,0.00,,---,0.00,VWS V14.01,2013-06-26 17:06:00,
2013-06-26 12:11:00,95.2,67.8,29.83,NE,56,2.0,10.0,41,0.00,,---,0.00,VWS V14.01,2013-06-26 17:11:00,
2013-06-26 12:16:00,95.4,67.3,29.83,NE,49,4.0,7.0,40,0.00,,---,0.00,VWS V14.01,2013-06-26 17:16:00,
2013-06-26 12:21:00,95.6,68.2,29.83,NNE,32,4.0,9.0,41,0.00,,---,0.00,VWS V14.01,2013-06-26 17:21:00,
2013-06-26 12:26:00,95.8,66.1,29.83,NE,55,5.0,9.0,38,0.00,,---,0.00,VWS V14.01,2013-06-26 17:26:00,
2013-06-26 12:31:00,95.9,66.2,29.83,SSE,150,3.0,5.0,38,0.00,,---,0.00,VWS V14.01,2013-06-26 17:31:00,
2013-06-26 12:36:00,96.3,67.3,29.83,NE,55,4.0,11.0,39,0.00,,---,0.00,VWS V14.01,2013-06-26 17:36:00,
2013-06-26 12:41:00,96.4,65.9,29.83,ENE,63,1.0,11.0,37,0.00,,---,0.00,VWS V14.01,2013-06-26 17:41:00,
2013-06-26 12:46:00,96.7,66.9,29.83,NE,35,3.0,4.0,38,0.00,,---,0.00,VWS V14.01,2013-06-26 17:46:00,
2013-06-26 12:51:00,97.3,66.7,29.83,NNW,328,2.0,6.0,37,0.00,,---,0.00,VWS V14.01,2013-06-26 17:51:00,
2013-06-26 12:56:00,97.5,68.4,29.83,ENE,63,1.0,7.0,39,0.00,,---,0.00,VWS V14.01,2013-06-26 17:56:00,
2013-06-26 13:01:00,97.8,67.1,29.83,ENE,58,9.0,10.0,37,0.00,,---,0.00,VWS V14.01,2013-06-26 18:01:00,
2013-06-26 13:06:00,97.6,66.2,29.82,NNE,23,2.0,10.0,36,0.00,,---,0.00,VWS V14.01,2013-06-26 18:06:00,
2013-06-26 13:11:00,98.6,63.7,29.82,ENE,65,4.0,10.0,32,0.00,,---,0.00,VWS V14.01,2013-06-26 18:11:00,
2013-06-26 13:16:00,98.9,65.7,29.82,NE,36,3.0,3.0,34,0.00,,---,0.00,VWS V14.01,2013-06-26 18:16:00,
2013-06-26 13:20:00,98.9,66.5,29.82,ENE,65,4.0,11.0,35,0.00,,---,0.00,VWS V14.01,2013-06-26 18:20:00,
2013-06-26 13:25:00,99.5,64.4,29.82,NNE,30,6.0,11.0,32,0.00,,---,0.00,VWS V14.01,2013-06-26 18:25:00,
2013-06-26 13:30:00,99.4,63.5,29.83,WNW,285,1.0,1.0,31,0.00,,---,0.00,VWS V14.01,2013-06-26 18:30:00,
2013-06-26 13:35:00,98.9,62.1,29.82,NNE,20,4.0,9.0,30,0.00,,---,0.00,VWS V14.01,2013-06-26 18:35:00,
2013-06-26 13:40:00,99.7,63.7,29.82,SE,143,2.0,9.0,31,0.00,,---,0.00,VWS V14.01,2013-06-26 18:40:00,
2013-06-26 13:45:00,99.9,63.9,29.82,ENE,61,2.0,9.0,31,0.00,,---,0.00,VWS V14.01,2013-06-26 18:45:00,
2013-06-26 13:50:00,99.9,62.9,29.82,NE,40,2.0,8.0,30,0.00,,---,0.00,VWS V14.01,2013-06-26 18:50:00,
2013-06-26 13:55:00,100.3,61.3,29.82,NE,35,6.0,8.0,28,0.00,,---,0.00,VWS V14.01,2013-06-26 18:55:00,
2013-06-26 14:00:00,100.0,61.1,29.82,NNE,22,5.0,8.0,28,0.00,,---,0.00,VWS V14.01,2013-06-26 19:00:00,
2013-06-26 14:05:00,100.0,62.1,29.82,NE,55,2.0,6.0,29,0.00,,---,0.00,VWS V14.01,2013-06-26 19:05:00,
2013-06-26 14:10:00,100.8,61.8,29.82,NE,44,5.0,9.0,28,0.00,,---,0.00,VWS V14.01,2013-06-26 19:10:00,
2013-06-26 14:15:00,100.8,61.8,29.82,NNE,14,7.0,10.0,28,0.00,,---,0.00,VWS V14.01,2013-06-26 19:15:00,
2013-06-26 14:20:00,100.3,61.3,29.82,NE,53,2.0,8.0,28,0.00,,---,0.00,VWS V14.01,2013-06-26 19:20:00,
2013-06-26 14:25:00,101.1,63.0,29.82,NE,53,4.0,8.0,29,0.00,,---,0.00,VWS V14.01,2013-06-26 19:25:00,
2013-06-26 14:30:00,101.5,62.3,29.82,NE,44,0.0,8.0,28,0.00,,---,0.00,VWS V14.01,2013-06-26 19:30:00,
2013-06-26 14:35:00,102.0,61.7,29.82,East,101,3.0,8.0,27,0.00,,---,0.00,VWS V14.01,2013-06-26 19:35:00,
2013-06-26 14:40:00,102.4,61.0,29.82,NNW,345,3.0,8.0,26,0.00,,---,0.00,VWS V14.01,2013-06-26 19:40:00,
2013-06-26 14:45:00,101.8,60.5,29.82,NE,51,6.0,10.0,26,0.00,,---,0.00,VWS V14.01,2013-06-26 19:45:00,
2013-06-26 14:50:00,101.3,61.2,29.82,WNW,294,1.0,7.0,27,0.00,,---,0.00,VWS V14.01,2013-06-26 19:50:00,
2013-06-26 14:55:00,102.3,60.9,29.81,NNW,335,3.0,7.0,26,0.00,,---,0.00,VWS V14.01,2013-06-26 19:55:00,
2013-06-26 15:00:00,102.4,59.9,29.81,ENE,58,6.0,9.0,25,0.00,,---,0.00,VWS V14.01,2013-06-26 20:00:00,
2013-06-26 15:05:00,102.2,59.7,29.81,East,79,2.0,7.0,25,0.00,,---,0.00,VWS V14.01,2013-06-26 20:05:00,
2013-06-26 15:10:00,102.1,60.8,29.81,East,84,0.0,7.0,26,0.00,,---,0.00,VWS V14.01,2013-06-26 20:10:00,
2013-06-26 15:15:00,102.6,60.1,29.81,ESE,104,4.0,7.0,25,0.00,,---,0.00,VWS V14.01,2013-06-26 20:15:00,
2013-06-26 15:20:00,102.6,60.1,29.81,NNE,23,2.0,5.0,25,0.00,,---,0.00,VWS V14.01,2013-06-26 20:20:00,
2013-06-26 15:25:00,103.2,59.4,29.81,ENE,63,2.0,5.0,24,0.00,,---,0.00,VWS V14.01,2013-06-26 20:25:00,
2013-06-26 15:30:00,102.9,60.3,29.81,North,6,3.0,8.0,25,0.00,,---,0.00,VWS V14.01,2013-06-26 20:30:00,
2013-06-26 15:35:00,102.7,60.2,29.81,NE,47,4.0,7.0,25,0.00,,---,0.00,VWS V14.01,2013-06-26 20:35:00,
2013-06-26 15:40:00,102.7,59.0,29.81,NW,317,1.0,7.0,24,0.00,,---,0.00,VWS V14.01,2013-06-26 20:40:00,
2013-06-26 15:45:00,102.7,59.0,29.81,North,349,1.0,7.0,24,0.00,,---,0.00,VWS V14.01,2013-06-26 20:45:00,
2013-06-26 15:50:00,102.9,60.3,29.81,ENE,70,2.0,7.0,25,0.00,,---,0.00,VWS V14.01,2013-06-26 20:50:00,
2013-06-26 15:55:00,103.1,60.5,29.81,ENE,62,1.0,7.0,25,0.00,,---,0.00,VWS V14.01,2013-06-26 20:55:00,
2013-06-26 16:00:00,102.5,58.8,29.81,NW,315,0.0,9.0,24,0.00,,---,0.00,VWS V14.01,2013-06-26 21:00:00,
2013-06-26 16:05:00,102.9,58.0,29.81,North,1,4.0,6.0,23,0.00,,---,0.00,VWS V14.01,2013-06-26 21:05:00,
2013-06-26 16:10:00,103.1,59.3,29.81,NNW,340,2.0,6.0,24,0.00,,---,0.00,VWS V14.01,2013-06-26 21:10:00,
2013-06-26 16:15:00,102.9,59.2,29.81,NE,43,5.0,8.0,24,0.00,,---,0.00,VWS V14.01,2013-06-26 21:15:00,
2013-06-26 16:20:00,102.9,59.2,29.81,NW,309,5.0,7.0,24,0.00,,---,0.00,VWS V14.01,2013-06-26 21:20:00,
2013-06-26 16:25:00,102.9,59.2,29.81,NE,46,3.0,7.0,24,0.00,,---,0.00,VWS V14.01,2013-06-26 21:25:00,
2013-06-26 16:30:00,103.2,59.4,29.81,ENE,61,5.0,7.0,24,0.00,,---,0.00,VWS V14.01,2013-06-26 21:30:00,
2013-06-26 16:35:00,103.2,61.7,29.81,SE,128,1.0,7.0,26,0.00,,---,0.00,VWS V14.01,2013-06-26 21:35:00,
2013-06-26 16:40:00,103.7,62.1,29.81,ENE,77,0.0,7.0,26,0.00,,---,0.00,VWS V14.01,2013-06-26 21:40:00,
2013-06-26 16:45:00,104.3,61.5,29.81,East,98,4.0,7.0,25,0.00,,---,0.00,VWS V14.01,2013-06-26 21:45:00,
2013-06-26 16:50:00,103.7,62.1,29.81,ENE,68,4.0,6.0,26,0.00,,---,0.00,VWS V14.01,2013-06-26 21:50:00,
2013-06-26 16:55:00,103.8,61.1,29.81,ENE,63,2.0,6.0,25,0.00,,---,0.00,VWS V14.01,2013-06-26 21:55:00,
2013-06-26 17:00:00,104.1,61.3,29.81,NE,50,2.0,6.0,25,0.00,,---,0.00,VWS V14.01,2013-06-26 22:00:00,
2013-06-26 17:05:00,104.0,61.2,29.81,SE,141,2.0,6.0,25,0.00,,---,0.00,VWS V14.01,2013-06-26 22:05:00,
2013-06-26 17:10:00,103.6,60.9,29.81,SE,128,2.0,6.0,25,0.00,,---,0.00,VWS V14.01,2013-06-26 22:10:00,
2013-06-26 17:15:00,103.7,62.1,29.81,ENE,62,3.0,7.0,26,0.00,,---,0.00,VWS V14.01,2013-06-26 22:15:00,
2013-06-26 17:20:00,103.0,61.5,29.81,East,98,2.0,5.0,26,0.00,,---,0.00,VWS V14.01,2013-06-26 22:20:00,
2013-06-26 17:25:00,103.3,61.8,29.81,North,353,2.0,6.0,26,0.00,,---,0.00,VWS V14.01,2013-06-26 22:25:00,
2013-06-26 17:30:00,103.0,61.5,29.80,SE,125,2.0,7.0,26,0.00,,---,0.00,VWS V14.01,2013-06-26 22:30:00,
2013-06-26 17:35:00,103.1,61.6,29.80,NE,49,4.0,6.0,26,0.00,,---,0.00,VWS V14.01,2013-06-26 22:35:00,
2013-06-26 17:40:00,103.0,61.5,29.80,ENE,68,1.0,6.0,26,0.00,,---,0.00,VWS V14.01,2013-06-26 22:40:00,
2013-06-26 17:45:00,103.7,61.0,29.80,ENE,60,4.0,6.0,25,0.00,,---,0.00,VWS V14.01,2013-06-26 22:45:00,
2013-06-26 17:50:00,103.6,62.0,29.80,ENE,72,2.0,5.0,26,0.00,,---,0.00,VWS V14.01,2013-06-26 22:50:00,
2013-06-26 17:55:00,104.0,61.2,29.80,ESE,113,4.0,8.0,25,0.00,,---,0.00,VWS V14.01,2013-06-26 22:55:00,
2013-06-26 18:00:00,103.8,61.1,29.80,NE,55,2.0,8.0,25,0.00,,---,0.00,VWS V14.01,2013-06-26 23:00:00,
2013-06-26 18:05:00,103.9,61.2,29.80,SSE,157,1.0,5.0,25,0.00,,---,0.00,VWS V14.01,2013-06-26 23:05:00,
2013-06-26 18:10:00,103.8,62.2,29.80,ENE,57,3.0,5.0,26,0.00,,---,0.00,VWS V14.01,2013-06-26 23:10:00,
2013-06-26 18:15:00,103.8,62.2,29.80,SE,136,0.0,6.0,26,0.00,,---,0.00,VWS V14.01,2013-06-26 23:15:00,
2013-06-26 18:20:00,104.6,62.9,29.80,SSE,151,2.0,3.0,26,0.00,,---,0.00,VWS V14.01,2013-06-26 23:20:00,
2013-06-26 18:25:00,104.3,61.5,29.80,SSE,166,2.0,5.0,25,0.00,,---,0.00,VWS V14.01,2013-06-26 23:25:00,
2013-06-26 18:30:00,103.9,61.2,29.80,ESE,111,2.0,6.0,25,0.00,,---,0.00,VWS V14.01,2013-06-26 23:30:00,
2013-06-26 18:35:00,104.0,61.2,29.80,SE,128,2.0,2.0,25,0.00,,---,0.00,VWS V14.01,2013-06-26 23:35:00,
2013-06-26 18:40:00,103.9,62.3,29.80,ENE,58,2.0,3.0,26,0.00,,---,0.00,VWS V14.01,2013-06-26 23:40:00,
2013-06-26 18:45:00,103.8,63.3,29.80,SE,131,0.0,3.0,27,0.00,,---,0.00,VWS V14.01,2013-06-26 23:45:00,
2013-06-26 18:50:00,104.3,62.6,29.80,ESE,107,1.0,2.0,26,0.00,,---,0.00,VWS V14.01,2013-06-26 23:50:00,
2013-06-26 18:55:00,103.8,62.2,29.80,SE,146,1.0,5.0,26,0.00,,---,0.00,VWS V14.01,2013-06-26 23:55:00,
2013-06-26 19:00:00,103.6,60.9,29.80,ENE,77,1.0,5.0,25,0.00,,---,0.00,VWS V14.01,2013-06-27 00:00:00,
2013-06-26 19:05:00,102.9,61.4,29.80,ESE,116,1.0,5.0,26,0.00,,---,0.00,VWS V14.01,2013-06-27 00:05:00,
2013-06-26 20:34:00,95.1,66.3,29.82,ESE,104,1.0,3.0,39,0.00,,---,0.00,VWS V14.01,2013-06-27 01:34:00,
2013-06-26 20:39:00,94.7,65.9,29.82,SE,129,1.0,3.0,39,0.00,,---,0.00,VWS V14.01,2013-06-27 01:39:00,
2013-06-26 20:44:00,94.3,66.3,29.82,ENE,66,0.0,3.0,40,0.00,,---,0.00,VWS V14.01,2013-06-27 01:44:00,
2013-06-26 20:49:00,94.0,66.0,29.82,ESE,108,1.0,3.0,40,0.00,,---,0.00,VWS V14.01,2013-06-27 01:49:00,
2013-06-26 20:54:00,93.6,66.4,29.82,SE,132,1.0,4.0,41,0.00,,---,0.00,VWS V14.01,2013-06-27 01:54:00,
2013-06-26 20:59:00,93.3,66.1,29.82,SE,138,1.0,4.0,41,0.00,,---,0.00,VWS V14.01,2013-06-27 01:59:00,
2013-06-26 21:04:00,93.1,66.6,29.82,SE,136,2.0,4.0,42,0.00,,---,0.00,VWS V14.01,2013-06-27 02:04:00,
2013-06-26 21:09:00,92.7,66.3,29.82,SE,132,1.0,4.0,42,0.00,,---,0.00,VWS V14.01,2013-06-27 02:09:00,
2013-06-26 21:14:00,92.4,66.0,29.82,SE,129,3.0,4.0,42,0.00,,---,0.00,VWS V14.01,2013-06-27 02:14:00,
2013-06-26 21:19:00,92.0,66.3,29.82,SE,131,1.0,3.0,43,0.00,,---,0.00,VWS V14.01,2013-06-27 02:19:00,
2013-06-26 21:24:00,91.8,66.1,29.82,SE,128,4.0,5.0,43,0.00,,---,0.00,VWS V14.01,2013-06-27 02:24:00,
2013-06-26 21:29:00,91.8,66.1,29.82,SE,141,2.0,6.0,43,0.00,,---,0.00,VWS V14.01,2013-06-27 02:29:00,
2013-06-26 21:34:00,91.7,66.1,29.83,East,81,3.0,4.0,43,0.00,,---,0.00,VWS V14.01,2013-06-27 02:34:00,
2013-06-26 21:39:00,91.4,66.4,29.83,SE,128,0.0,6.0,44,0.00,,---,0.00,VWS V14.01,2013-06-27 02:39:00,
2013-06-26 21:44:00,91.2,66.3,29.83,SE,141,2.0,6.0,44,0.00,,---,0.00,VWS V14.01,2013-06-27 02:44:00,
2013-06-26 21:49:00,91.0,66.7,29.83,SE,134,1.0,6.0,45,0.00,,---,0.00,VWS V14.01,2013-06-27 02:49:00,
2013-06-26 21:54:00,90.7,66.5,29.83,SE,142,1.0,6.0,45,0.00,,---,0.00,VWS V14.01,2013-06-27 02:54:00,
2013-06-26 21:59:00,90.5,66.9,29.83,SE,139,3.0,6.0,46,0.00,,---,0.00,VWS V14.01,2013-06-27 02:59:00,
2013-06-26 22:04:00,90.2,67.3,29.84,SSE,150,4.0,5.0,47,0.00,,---,0.00,VWS V14.01,2013-06-27 03:04:00,
2013-06-26 22:09:00,90.2,67.3,29.84,ESE,113,4.0,6.0,47,0.00,,---,0.00,VWS V14.01,2013-06-27 03:09:00,
2013-06-26 22:14:00,90.2,67.3,29.84,SSE,158,0.0,6.0,47,0.00,,---,0.00,VWS V14.01,2013-06-27 03:14:00,
2013-06-26 22:19:00,90.0,67.7,29.84,SE,140,1.0,3.0,48,0.00,,---,0.00,VWS V14.01,2013-06-27 03:19:00,
2013-06-26 22:24:00,89.8,67.5,29.84,SE,128,1.0,4.0,48,0.00,,---,0.00,VWS V14.01,2013-06-27 03:24:00,
2013-06-26 22:29:00,89.6,67.3,29.84,East,97,1.0,4.0,48,0.00,,---,0.00,VWS V14.01,2013-06-27 03:29:00,
2013-06-26 22:34:00,89.3,67.7,29.84,SE,134,0.0,3.0,49,0.00,,---,0.00,VWS V14.01,2013-06-27 03:34:00,
2013-06-26 22:39:00,89.0,67.4,29.84,SE,143,2.0,3.0,49,0.00,,---,0.00,VWS V14.01,2013-06-27 03:39:00,
2013-06-26 22:43:00,88.7,67.7,29.84,SSE,167,0.0,4.0,50,0.00,,---,0.00,VWS V14.01,2013-06-27 03:43:00,
2013-06-26 22:48:00,88.6,67.6,29.84,ESE,109,2.0,5.0,50,0.00,,---,0.00,VWS V14.01,2013-06-27 03:48:00,
2013-06-26 22:53:00,88.5,66.9,29.85,South,172,2.0,6.0,49,0.00,,---,0.00,VWS V14.01,2013-06-27 03:53:00,
2013-06-26 22:58:00,88.5,66.9,29.85,SE,140,1.0,6.0,49,0.00,,---,0.00,VWS V14.01,2013-06-27 03:58:00,
2013-06-26 23:01:00,88.5,67.5,29.85,ESE,113,3.0,3.0,50,0.00,,---,0.00,VWS V14.01,2013-06-27 04:01:00,
2013-06-26 23:02:00,88.4,67.4,29.85,SE,128,2.0,3.0,50,0.00,,---,0.00,VWS V14.01,2013-06-27 04:02:00,
2013-06-26 23:03:00,88.5,67.5,29.85,SSE,148,0.0,3.0,50,0.00,,---,0.00,VWS V14.01,2013-06-27 04:03:00,
2013-06-26 23:08:00,88.2,67.2,29.85,SSE,160,2.0,5.0,50,0.00,,---,0.00,VWS V14.01,2013-06-27 04:08:00,
2013-06-26 23:13:00,88.0,67.1,29.85,SE,128,1.0,7.0,50,0.00,,---,0.00,VWS V14.01,2013-06-27 04:13:00,
2013-06-26 23:18:00,87.8,67.4,29.84,SE,146,1.0,3.0,51,0.00,,---,0.00,VWS V14.01,2013-06-27 04:18:00,
2013-06-26 23:23:00,87.5,67.2,29.85,SE,142,0.0,3.0,51,0.00,,---,0.00,VWS V14.01,2013-06-27 04:23:00,
2013-06-26 23:28:00,87.4,67.1,29.85,ESE,104,2.0,3.0,51,0.00,,---,0.00,VWS V14.01,2013-06-27 04:28:00,
2013-06-26 23:29:00,87.4,67.6,29.85,SE,126,5.0,5.0,52,0.00,,---,0.00,VWS V14.01,2013-06-27 04:29:00,
2013-06-26 23:34:00,87.1,67.4,29.85,SE,143,0.0,3.0,52,0.00,,---,0.00,VWS V14.01,2013-06-27 04:34:00,
2013-06-26 23:39:00,87.0,67.3,29.84,SE,146,0.0,3.0,52,0.00,,---,0.00,VWS V14.01,2013-06-27 04:39:00,
2013-06-26 23:44:00,86.9,67.2,29.84,SE,139,0.0,4.0,52,0.00,,---,0.00,VWS V14.01,2013-06-27 04:44:00,
2013-06-26 23:49:00,86.8,67.1,29.84,ESE,110,2.0,3.0,52,0.00,,---,0.00,VWS V14.01,2013-06-27 04:49:00,
2013-06-26 23:54:00,86.8,67.1,29.85,SE,128,3.0,3.0,52,0.00,,---,0.00,VWS V14.01,2013-06-27 04:54:00,
2013-06-26 23:59:00,86.7,67.5,29.85,SE,129,0.0,3.0,53,0.00,,---,0.00,VWS V14.01,2013-06-27 04:59:00,